QPF
0.00 0.00 0.01 0.01 0.01 0.01 0.01 0.01 0.01 0.01 0.00 0.00 0.01 0.01 0.01 0.00 0.00 0.01 0.01 0.01 0.01 0.02 0.02 0.02 0.03 0.03 0.02 0.02 0.01 0.02 0.02 0.02 0.03 0.03 0.03 0.03 0.04 0.05 0.06 0.07 0.06 0.03 0.03
0.00 0.00 0.00 0.00 0.01 0.01 0.01 0.01 0.01 0.01 0.01 0.00 0.01 0.01 0.01 0.00 0.01 0.01 0.01 0.01 0.01 0.01 0.02 0.02 0.02 0.02 0.02 0.02 0.01 0.01 0.01 0.03 0.05 0.05 0.05 0.04 0.05 0.05 0.05 0.06 0.07 0.05 0.07
0.00 0.00 0.00 0.01 0.01 0.01 0.01 0.01 0.01 0.01 0.00 0.01 0.01 0.01 0.01 0.01 0.01 0.01 0.02 0.02 0.02 0.01 0.01 0.02 0.01 0.01 0.01 0.01 0.01 0.01 0.02 0.03 0.04 0.06 0.06 0.04 0.02 0.03 0.04 0.06 0.06 0.05 0.04
0.00 0.00 0.00 0.00 0.00 0.00 0.00 0.00 0.00 0.00 0.00 0.00 0.01 0.01 0.01 0.01 0.02 0.01 0.02 0.02 0.02 0.01 0.01 0.01 0.01 0.00 0.00 0.01 0.01 0.01 0.02 0.02 0.04 0.04 0.04 0.02 0.02 0.03 0.05 0.05 0.04 0.04 0.03
0.00 0.00 0.00 0.00 0.01 0.00 0.00 0.00 0.00 0.01 0.01 0.00 0.01 0.01 0.01 0.02 0.02 0.02 0.01 0.01 0.02 0.02 0.01 0.00 0.00 0.00 0.00 0.00 0.00 0.01 0.02 0.02 0.01 0.02 0.02 0.03 0.03 0.03 0.04 0.03 0.02 0.04 0.05
0.00 0.00 0.00 0.01 0.01 0.00 0.00 0.00 0.00 0.00 0.00 0.01 0.01 0.01 0.02 0.02 0.03 0.02 0.01 0.01 0.02 0.02 0.02 0.01 0.00 0.00 0.00 0.00 0.01 0.01 0.02 0.02 0.01 0.01 0.01 0.03 0.02 0.02 0.03 0.03 0.03 0.04 0.05
0.00 0.00 0.00 0.01 0.01 0.01 0.00 0.00 0.00 0.01 0.01 0.01 0.01 0.02 0.03 0.02 0.02 0.02 0.02 0.01 0.01 0.01 0.01 0.01 0.00 0.00 0.01 0.01 0.02 0.02 0.02 0.01 0.01 0.01 0.02 0.03 0.02 0.01 0.02 0.03 0.03 0.04 0.04
0.00 0.01 0.01 0.01 0.01 0.01 0.00 0.00 0.01 0.01 0.01 0.01 0.01 0.02 0.02 0.01 0.02 0.02 0.02 0.01 0.01 0.01 0.01 0.00 0.01 0.01 0.01 0.01 0.02 0.04 0.04 0.01 0.00 0.00 0.01 0.02 0.02 0.02 0.03 0.02 0.03 0.03 0.03
0.00 0.01 0.02 0.03 0.03 0.02 0.02 0.02 0.01 0.01 0.01 0.01 0.01 0.01 0.02 0.01 0.02 0.02 0.02 0.02 0.01 0.01 0.01 0.01 0.01 0.01 0.01 0.02 0.03 0.05 0.04 0.03 0.01 0.00 0.00 0.01 0.02 0.03 0.03 0.03 0.03 0.03 0.02
0.02 0.03 0.03 0.05 0.05 0.04 0.03 0.02 0.02 0.02 0.01 0.02 0.02 0.02 0.02 0.02 0.03 0.03 0.02 0.02 0.01 0.01 0.01 0.01 0.01 0.01 0.02 0.03 0.03 0.05 0.06 0.04 0.03 0.02 0.01 0.01 0.02 0.03 0.03 0.03 0.04 0.03 0.02
0.05 0.06 0.06 0.05 0.06 0.07 0.06 0.04 0.03 0.03 0.02 0.02 0.04 0.04 0.04 0.03 0.03 0.03 0.02 0.03 0.02 0.02 0.03 0.03 0.02 0.02 0.02 0.03 0.03 0.04 0.05 0.04 0.03 0.04 0.03 0.01 0.02 0.03 0.02 0.03 0.03 0.04 0.03
0.04 0.08 0.10 0.09 0.07 0.07 0.05 0.06 0.07 0.05 0.04 0.04 0.06 0.06 0.06 0.06 0.05 0.02 0.02 0.04 0.03 0.03 0.03 0.03 0.03 0.02 0.02 0.01 0.01 0.02 0.02 0.03 0.03 0.03 0.03 0.02 0.03 0.03 0.03 0.03 0.02 0.03 0.04
0.06 0.08 0.12 0.13 0.10 0.06 0.05 0.04 0.05 0.06 0.06 0.05 0.05 0.07 0.07 0.04 0.04 0.03 0.03 0.04 0.05 0.03 0.04 0.02 0.02 0.02 0.03 0.03 0.02 0.01 0.02 0.03 0.03 0.02 0.03 0.03 0.05 0.05 0.04 0.05 0.04 0.03 0.04
0.07 0.06 0.07 0.12 0.09 0.05 0.04 0.04 0.04 0.05 0.04 0.03 0.03 0.04 0.04 0.04 0.04 0.03 0.03 0.04 0.05 0.05 0.05 0.03 0.03 0.04 0.03 0.02 0.01 0.02 0.03 0.04 0.04 0.04 0.05 0.03 0.04 0.05 0.06 0.07 0.06 0.05 0.05
0.09 0.07 0.07 0.11 0.12 0.08 0.05 0.03 0.03 0.04 0.03 0.02 0.02 0.03 0.04 0.04 0.05 0.04 0.05 0.05 0.04 0.04 0.04 0.03 0.02 0.03 0.03 0.02 0.02 0.02 0.03 0.03 0.03 0.03 0.05 0.04 0.05 0.06 0.07 0.07 0.07 0.06 0.07
0.09 0.09 0.07 0.12 0.12 0.10 0.06 0.04 0.04 0.04 0.04 0.02 0.03 0.03 0.04 0.05 0.06 0.06 0.06 0.06 0.04 0.03 0.04 0.03 0.02 0.03 0.03 0.03 0.03 0.02 0.02 0.02 0.02 0.03 0.04 0.05 0.06 0.06 0.08 0.09 0.10 0.10 0.11
0.09 0.09 0.09 0.11 0.10 0.07 0.07 0.06 0.06 0.06 0.04 0.03 0.04 0.03 0.04 0.05 0.06 0.06 0.06 0.04 0.03 0.03 0.03 0.03 0.03 0.03 0.02 0.03 0.03 0.04 0.04 0.04 0.06 0.04 0.05 0.06 0.07 0.05 0.06 0.09 0.10 0.11 0.12
0.10 0.10 0.09 0.08 0.09 0.08 0.08 0.08 0.08 0.09 0.05 0.05 0.04 0.04 0.04 0.04 0.04 0.05 0.05 0.04 0.04 0.03 0.03 0.04 0.04 0.05 0.04 0.04 0.04 0.04 0.05 0.07 0.07 0.05 0.06 0.07 0.08 0.07 0.08 0.07 0.07 0.09 0.11
0.09 0.10 0.12 0.09 0.08 0.09 0.10 0.09 0.08 0.09 0.07 0.06 0.05 0.04 0.04 0.03 0.04 0.05 0.05 0.05 0.04 0.04 0.05 0.03 0.03 0.04 0.04 0.03 0.03 0.05 0.05 0.06 0.06 0.05 0.06 0.07 0.07 0.08 0.08 0.06 0.04 0.05 0.08
0.10 0.13 0.14 0.10 0.08 0.09 0.09 0.08 0.08 0.09 0.08 0.06 0.05 0.05 0.05 0.05 0.05 0.05 0.04 0.04 0.03 0.02 0.04 0.03 0.03 0.03 0.02 0.03 0.01 0.02 0.02 0.03 0.04 0.04 0.04 0.04 0.04 0.05 0.06 0.06 0.05 0.04 0.04
0.10 0.13 0.13 0.09 0.08 0.10 0.08 0.06 0.06 0.06 0.06 0.05 0.04 0.05 0.05 0.05 0.05 0.05 0.04 0.04 0.03 0.02 0.02 0.02 0.01 0.02 0.01 0.01 0.02 0.02 0.02 0.01 0.03 0.03 0.05 0.06 0.05 0.06 0.07 0.07 0.06 0.05 0.05
0.10 0.14 0.14 0.11 0.09 0.09 0.08 0.06 0.06 0.06 0.07 0.05 0.04 0.04 0.04 0.06 0.05 0.03 0.04 0.03 0.02 0.01 0.01 0.01 0.01 0.01 0.01 0.01 0.02 0.03 0.03 0.03 0.02 0.02 0.03 0.04 0.05 0.06 0.06 0.05 0.05 0.06 0.05
0.08 0.10 0.10 0.09 0.08 0.08 0.09 0.08 0.08 0.07 0.05 0.04 0.04 0.04 0.03 0.04 0.04 0.03 0.03 0.02 0.02 0.01 0.02 0.02 0.02 0.01 0.01 0.00 0.00 0.01 0.02 0.02 0.02 0.02 0.01 0.02 0.04 0.04 0.03 0.02 0.03 0.04 0.04
0.07 0.07 0.09 0.08 0.06 0.06 0.07 0.08 0.09 0.08 0.05 0.04 0.05 0.04 0.04 0.04 0.03 0.03 0.03 0.03 0.02 0.01 0.01 0.01 0.01 0.01 0.01 0.00 0.00 0.00 0.01 0.01 0.02 0.02 0.01 0.01 0.02 0.01 0.01 0.01 0.01 0.02 0.03
0.07 0.07 0.09 0.11 0.08 0.06 0.07 0.08 0.09 0.09 0.06 0.04 0.05 0.04 0.04 0.04 0.04 0.04 0.04 0.03 0.02 0.01 0.01 0.01 0.01 0.01 0.01 0.00 0.00 0.00 0.00 0.01 0.01 0.02 0.01 0.01 0.01 0.00 0.01 0.01 0.00 0.01 0.02
0.06 0.07 0.08 0.10 0.08 0.06 0.06 0.08 0.09 0.08 0.05 0.05 0.04 0.04 0.04 0.04 0.04 0.04 0.02 0.01 0.01 0.01 0.00 0.00 0.01 0.01 0.00 0.00 0.00 0.00 0.00 0.01 0.01 0.01 0.01 0.01 0.01 0.01 0.00 0.00 0.00 0.01 0.01
MSLP
1010.23 1010.43 1010.81 1011.33 1011.89 1012.42 1012.85 1013.14 1013.30 1013.36 1013.40 1013.45 1013.57 1013.77 1014.02 1014.28 1014.51 1014.66 1014.71 1014.67 1014.59 1014.52 1014.49 1014.53 1014.65 1014.83 1015.04 1015.21 1015.33 1015.39 1015.38 1015.34 1015.29 1015.28 1015.33 1015.44 1015.60 1015.79 1015.98 1016.15 1016.30 1016.44 1016.57
1009.95 1010.26 1010.75 1011.37 1012.01 1012.59 1013.04 1013.33 1013.48 1013.52 1013.54 1013.58 1013.71 1013.92 1014.20 1014.49 1014.74 1014.90 1014.96 1014.92 1014.84 1014.75 1014.72 1014.77 1014.91 1015.11 1015.33 1015.52 1015.65 1015.69 1015.66 1015.59 1015.52 1015.48 1015.51 1015.62 1015.78 1015.99 1016.21 1016.41 1016.59 1016.75 1016.89
1009.68 1010.10 1010.69 1011.40 1012.12 1012.75 1013.24 1013.55 1013.69 1013.73 1013.73 1013.77 1013.89 1014.10 1014.38 1014.67 1014.91 1015.08 1015.13 1015.10 1015.02 1014.94 1014.92 1014.99 1015.14 1015.36 1015.59 1015.78 1015.89 1015.92 1015.87 1015.77 1015.67 1015.61 1015.63 1015.73 1015.91 1016.13 1016.37 1016.60 1016.81 1017.00 1017.17
1009.47 1009.98 1010.67 1011.45 1012.24 1012.93 1013.46 1013.79 1013.96 1014.00 1014.00 1014.02 1014.12 1014.31 1014.56 1014.83 1015.06 1015.21 1015.27 1015.24 1015.18 1015.13 1015.15 1015.24 1015.41 1015.63 1015.86 1016.03 1016.11 1016.11 1016.02 1015.90 1015.78 1015.71 1015.73 1015.84 1016.03 1016.28 1016.54 1016.80 1017.03 1017.24 1017.44
1009.34 1009.94 1010.70 1011.55 1012.39 1013.13 1013.69 1014.06 1014.24 1014.30 1014.30 1014.32 1014.40 1014.56 1014.77 1015.00 1015.21 1015.35 1015.41 1015.41 1015.38 1015.38 1015.43 1015.56 1015.75 1015.97 1016.17 1016.31 1016.35 1016.31 1016.19 1016.04 1015.91 1015.85 1015.89 1016.02 1016.23 1016.50 1016.78 1017.06 1017.31 1017.54 1017.75
1009.33 1009.97 1010.78 1011.67 1012.54 1013.31 1013.90 1014.30 1014.52 1014.60 1014.61 1014.63 1014.69 1014.82 1015.00 1015.20 1015.38 1015.51 1015.58 1015.62 1015.65 1015.70 1015.80 1015.96 1016.17 1016.37 1016.54 1016.63 1016.63 1016.54 1016.39 1016.23 1016.11 1016.07 1016.14 1016.30 1016.55 1016.83 1017.13 1017.42 1017.68 1017.92 1018.14
1009.41 1010.08 1010.89 1011.79 1012.66 1013.44 1014.05 1014.48 1014.72 1014.84 1014.88 1014.91 1014.98 1015.09 1015.24 1015.41 1015.57 1015.70 1015.80 1015.88 1015.96 1016.07 1016.23 1016.42 1016.63 1016.82 1016.94 1016.98 1016.93 1016.80 1016.63 1016.47 1016.37 1016.38 1016.49 1016.70 1016.98 1017.29 1017.60 1017.89 1018.13 1018.36 1018.57
1009.57 1010.23 1011.02 1011.88 1012.73 1013.49 1014.10 1014.54 1014.82 1014.98 1015.07 1015.13 1015.21 1015.32 1015.47 1015.63 1015.78 1015.92 1016.04 1016.16 1016.29 1016.45 1016.65 1016.87 1017.07 1017.24 1017.32 1017.31 1017.21 1017.05 1016.87 1016.73 1016.67 1016.73 1016.90 1017.17 1017.49 1017.83 1018.14 1018.41 1018.63 1018.82 1019.00
1009.78 1010.40 1011.13 1011.93 1012.72 1013.44 1014.03 1014.48 1014.79 1014.99 1015.13 1015.25 1015.37 1015.50 1015.66 1015.82 1015.97 1016.11 1016.25 1016.40 1016.57 1016.77 1016.99 1017.22 1017.42 1017.55 1017.60 1017.55 1017.42 1017.24 1017.07 1016.97 1016.96 1017.08 1017.32 1017.64 1018.01 1018.36 1018.67 1018.92 1019.11 1019.25 1019.38
1010.02 1010.58 1011.24 1011.95 1012.65 1013.30 1013.86 1014.30 1014.64 1014.89 1015.09 1015.27 1015.44 1015.61 1015.79 1015.96 1016.12 1016.27 1016.41 1016.57 1016.76 1016.97 1017.20 1017.42 1017.60 1017.71 1017.73 1017.66 1017.52 1017.34 1017.20 1017.14 1017.19 1017.38 1017.68 1018.06 1018.46 1018.84 1019.15 1019.37 1019.52 1019.61 1019.69
1010.28 1010.77 1011.34 1011.95 1012.56 1013.14 1013.64 1014.06 1014.42 1014.71 1014.97 1015.21 1015.44 1015.66 1015.87 1016.06 1016.22 1016.36 1016.50 1016.65 1016.83 1017.03 1017.24 1017.45 1017.61 1017.71 1017.71 1017.63 1017.50 1017.35 1017.25 1017.23 1017.35 1017.60 1017.96 1018.38 1018.81 1019.20 1019.51 1019.71 1019.83 1019.88 1019.92
1010.54 1010.98 1011.46 1011.98 1012.50 1012.98 1013.43 1013.82 1014.18 1014.50 1014.81 1015.11 1015.40 1015.68 1015.92 1016.12 1016.28 1016.41 1016.53 1016.65 1016.80 1016.97 1017.16 1017.34 1017.49 1017.58 1017.58 1017.52 1017.41 1017.30 1017.24 1017.28 1017.45 1017.74 1018.14 1018.59 1019.05 1019.45 1019.76 1019.96 1020.05 1020.08 1020.09
1010.80 1011.19 1011.62 1012.06 1012.49 1012.90 1013.28 1013.64 1013.99 1014.33 1014.68 1015.02 1015.36 1015.67 1015.94 1016.16 1016.32 1016.44 1016.53 1016.62 1016.73 1016.86 1017.01 1017.17 1017.31 1017.39 1017.42 1017.39 1017.32 1017.26 1017.25 1017.33 1017.53 1017.85 1018.27 1018.73 1019.20 1019.61 1019.92 1020.12 1020.22 1020.25 1020.25
1011.03 1011.42 1011.81 1012.19 1012.56 1012.90 1013.24 1013.56 1013.89 1014.24 1014.60 1014.97 1015.34 1015.68 1015.98 1016.21 1016.37 1016.47 1016.54 1016.60 1016.67 1016.76 1016.88 1017.02 1017.15 1017.25 1017.30 1017.31 1017.30 1017.29 1017.32 1017.43 1017.65 1017.98 1018.39 1018.84 1019.30 1019.71 1020.03 1020.25 1020.37 1020.42 1020.43
1011.22 1011.62 1012.00 1012.36 1012.69 1013.00 1013.30 1013.59 1013.90 1014.24 1014.60 1014.98 1015.36 1015.72 1016.03 1016.27 1016.44 1016.54 1016.59 1016.63 1016.67 1016.74 1016.83 1016.96 1017.09 1017.20 1017.30 1017.35 1017.39 1017.43 1017.50 1017.63 1017.84 1018.15 1018.53 1018.96 1019.40 1019.80 1020.13 1020.37 1020.52 1020.60 1020.65
1011.34 1011.77 1012.17 1012.53 1012.86 1013.15 1013.43 1013.71 1014.01 1014.32 1014.67 1015.05 1015.42 1015.78 1016.10 1016.35 1016.53 1016.64 1016.70 1016.73 1016.76 1016.81 1016.90 1017.01 1017.15 1017.29 1017.42 1017.52 1017.60 1017.68 1017.78 1017.91 1018.11 1018.38 1018.72 1019.10 1019.51 1019.89 1020.22 1020.48 1020.67 1020.79 1020.87
1011.38 1011.84 1012.26 1012.65 1013.00 1013.31 1013.60 1013.88 1014.16 1014.47 1014.80 1015.15 1015.51 1015.86 1016.17 1016.43 1016.63 1016.76 1016.84 1016.89 1016.93 1016.98 1017.06 1017.18 1017.32 1017.47 1017.63 1017.77 1017.89 1018.00 1018.11 1018.24 1018.41 1018.64 1018.93 1019.26 1019.61 1019.96 1020.29 1020.57 1020.78 1020.94 1021.05
1011.32 1011.80 1012.26 1012.68 1013.07 1013.42 1013.75 1014.05 1014.34 1014.63 1014.94 1015.26 1015.59 1015.92 1016.23 1016.50 1016.72 1016.88 1017.00 1017.07 1017.13 1017.20 1017.28 1017.39 1017.54 1017.70 1017.87 1018.03 1018.17 1018.30 1018.42 1018.55 1018.69 1018.88 1019.11 1019.38 1019.69 1020.00 1020.31 1020.59 1020.83 1021.01 1021.15
1011.18 1011.67 1012.14 1012.61 1013.05 1013.46 1013.84 1014.18 1014.49 1014.79 1015.08 1015.37 1015.67 1015.97 1016.26 1016.54 1016.78 1016.98 1017.13 1017.25 1017.34 1017.42 1017.51 1017.61 1017.75 1017.90 1018.06 1018.23 1018.38 1018.52 1018.65 1018.77 1018.89 1019.04 1019.22 1019.44 1019.70 1019.98 1020.26 1020.53 1020.78 1020.97 1021.12
1010.98 1011.45 1011.94 1012.43 1012.93 1013.41 1013.85 1014.25 1014.60 1014.91 1015.20 1015.46 1015.73 1016.00 1016.27 1016.55 1016.81 1017.04 1017.24 1017.39 1017.52 1017.61 1017.70 1017.80 1017.91 1018.04 1018.18 1018.33 1018.48 1018.62 1018.75 1018.86 1018.97 1019.10 1019.24 1019.42 1019.63 1019.87 1020.13 1020.38 1020.61 1020.82 1020.97
1010.75 1011.18 1011.66 1012.18 1012.73 1013.27 1013.79 1014.26 1014.66 1015.01 1015.29 1015.54 1015.78 1016.02 1016.28 1016.55 1016.82 1017.09 1017.32 1017.51 1017.66 1017.78 1017.86 1017.94 1018.01 1018.11 1018.22 1018.34 1018.47 1018.60 1018.72 1018.84 1018.94 1019.05 1019.18 1019.32 1019.50 1019.70 1019.92 1020.15 1020.37 1020.56 1020.73
1010.51 1010.90 1011.36 1011.89 1012.48 1013.08 1013.68 1014.22 1014.68 1015.06 1015.36 1015.61 1015.83 1016.05 1016.30 1016.56 1016.84 1017.13 1017.40 1017.63 1017.80 1017.93 1018.01 1018.06 1018.10 1018.14 1018.20 1018.29 1018.39 1018.51 1018.62 1018.73 1018.84 1018.95 1019.06 1019.18 1019.32 1019.49 1019.68 1019.88 1020.08 1020.27 1020.43
1010.29 1010.63 1011.06 1011.60 1012.21 1012.87 1013.52 1014.13 1014.66 1015.08 1015.42 1015.68 1015.90 1016.11 1016.34 1016.60 1016.90 1017.21 1017.50 1017.76 1017.96 1018.10 1018.17 1018.20 1018.20 1018.20 1018.21 1018.25 1018.32 1018.41 1018.51 1018.62 1018.73 1018.83 1018.93 1019.04 1019.16 1019.29 1019.45 1019.61 1019.79 1019.97 1020.15
1010.11 1010.41 1010.81 1011.33 1011.95 1012.64 1013.34 1014.01 1014.59 1015.07 1015.44 1015.73 1015.96 1016.18 1016.42 1016.69 1016.99 1017.32 1017.64 1017.93 1018.15 1018.30 1018.38 1018.39 1018.37 1018.33 1018.30 1018.29 1018.32 1018.38 1018.47 1018.57 1018.67 1018.77 1018.86 1018.95 1019.04 1019.15 1019.26 1019.40 1019.56 1019.72 1019.90
1009.97 1010.24 1010.61 1011.11 1011.73 1012.42 1013.15 1013.85 1014.48 1015.01 1015.43 1015.76 1016.02 1016.26 1016.51 1016.79 1017.11 1017.46 1017.81 1018.12 1018.37 1018.55 1018.64 1018.65 1018.61 1018.54 1018.48 1018.44 1018.43 1018.46 1018.53 1018.61 1018.70 1018.78 1018.86 1018.93 1019.00 1019.07 1019.15 1019.26 1019.38 1019.54 1019.71
1009.87 1010.12 1010.47 1010.94 1011.53 1012.22 1012.95 1013.67 1014.33 1014.90 1015.37 1015.74 1016.04 1016.31 1016.59 1016.89 1017.23 1017.60 1017.97 1018.31 1018.59 1018.79 1018.91 1018.93 1018.90 1018.83 1018.75 1018.68 1018.65 1018.65 1018.69 1018.75 1018.82 1018.89 1018.95 1018.99 1019.03 1019.07 1019.12 1019.19 1019.28 1019.41 1019.57
Thickness
5806 5801 5788 5786 5783 5781 5779 5777 5775 5773 5771 5769 5767 5765 5764 5763 5762 5761 5760 5760 5759 5758 5758 5757 5756 5756 5755 5755 5754 5752 5751 5750 5749 5748 5747 5746 5745 5743 5743 5742 5742 5741 5737
5809 5799 5787 5785 5782 5779 5777 5775 5773 5771 5769 5767 5765 5763 5762 5761 5760 5759 5759 5758 5757 5757 5756 5755 5754 5754 5753 5752 5751 5750 5749 5748 5747 5746 5746 5744 5743 5742 5741 5741 5741 5738 5735
5806 5797 5786 5783 5780 5777 5775 5773 5771 5769 5767 5765 5763 5762 5760 5759 5758 5757 5757 5756 5755 5754 5754 5753 5752 5752 5751 5750 5749 5748 5747 5746 5745 5746 5746 5747 5743 5740 5739 5738 5737 5735 5733
5803 5795 5787 5780 5777 5775 5773 5771 5769 5767 5765 5763 5761 5760 5759 5757 5756 5755 5755 5754 5753 5752 5751 5750 5750 5749 5748 5747 5747 5746 5745 5745 5744 5746 5748 5747 5743 5738 5737 5736 5735 5733 5732
5800 5794 5785 5778 5775 5772 5770 5769 5767 5765 5763 5762 5760 5758 5757 5756 5755 5753 5752 5751 5751 5750 5749 5748 5747 5746 5746 5745 5744 5744 5743 5743 5744 5746 5746 5744 5741 5736 5735 5734 5733 5731 5730
5797 5792 5782 5775 5772 5770 5768 5766 5764 5763 5761 5760 5758 5757 5755 5754 5752 5751 5750 5749 5748 5747 5746 5745 5744 5744 5743 5742 5742 5741 5741 5741 5744 5746 5744 5742 5739 5734 5733 5732 5731 5730 5728
5795 5790 5780 5772 5770 5767 5765 5764 5762 5760 5759 5758 5756 5755 5753 5752 5750 5749 5748 5746 5745 5744 5743 5742 5742 5741 5741 5740 5739 5739 5739 5740 5745 5744 5742 5739 5735 5732 5731 5730 5729 5728 5727
5794 5788 5777 5770 5767 5765 5763 5761 5760 5758 5757 5755 5754 5753 5751 5750 5748 5747 5745 5744 5742 5741 5740 5740 5739 5739 5738 5738 5737 5737 5737 5738 5742 5742 5740 5737 5732 5730 5729 5728 5727 5726 5725
5791 5786 5777 5771 5765 5762 5760 5758 5757 5756 5755 5753 5752 5750 5749 5748 5746 5745 5743 5742 5740 5739 5738 5737 5737 5736 5736 5735 5735 5734 5735 5737 5743 5740 5739 5734 5729 5728 5727 5726 5724 5724 5723
5786 5782 5777 5771 5766 5763 5759 5756 5755 5754 5752 5751 5749 5748 5747 5746 5744 5743 5741 5739 5738 5737 5736 5735 5734 5734 5733 5733 5733 5732 5733 5735 5740 5738 5737 5731 5727 5725 5724 5723 5722 5721 5721
5779 5777 5775 5770 5765 5763 5760 5755 5753 5751 5750 5748 5747 5746 5746 5747 5746 5743 5741 5737 5736 5734 5734 5733 5732 5732 5731 5731 5731 5731 5733 5738 5738 5737 5733 5727 5724 5723 5722 5721 5720 5719 5718
5772 5771 5772 5768 5764 5762 5760 5755 5753 5753 5750 5749 5747 5746 5746 5744 5744 5743 5737 5735 5734 5732 5732 5731 5731 5731 5732 5734 5732 5731 5736 5736 5736 5734 5729 5724 5722 5721 5720 5719 5718 5717 5716
5771 5769 5768 5764 5762 5761 5758 5755 5754 5752 5749 5748 5746 5745 5744 5743 5742 5741 5738 5735 5733 5732 5733 5731 5732 5734 5734 5733 5734 5735 5735 5735 5734 5733 5727 5722 5720 5719 5718 5717 5716 5715 5714
5767 5765 5764 5762 5759 5757 5757 5755 5753 5751 5749 5747 5744 5743 5743 5742 5741 5740 5738 5736 5734 5733 5732 5733 5732 5731 5731 5731 5732 5732 5731 5732 5732 5730 5724 5720 5719 5717 5716 5715 5714 5713 5712
5763 5761 5759 5758 5755 5753 5752 5752 5752 5750 5749 5746 5743 5742 5741 5741 5739 5738 5736 5734 5734 5733 5732 5731 5731 5729 5729 5729 5730 5729 5729 5729 5729 5728 5724 5719 5717 5716 5714 5713 5712 5711 5710
5761 5758 5756 5753 5751 5749 5748 5748 5748 5747 5745 5745 5742 5740 5739 5739 5738 5736 5733 5732 5732 5732 5732 5731 5731 5729 5729 5728 5728 5727 5727 5727 5726 5725 5724 5720 5716 5715 5713 5712 5711 5710 5709
5759 5756 5753 5750 5748 5746 5746 5746 5745 5744 5743 5742 5740 5738 5737 5736 5735 5734 5733 5732 5732 5731 5729 5729 5729 5729 5728 5728 5727 5726 5726 5725 5725 5724 5723 5721 5718 5714 5713 5711 5710 5709 5708
5757 5754 5751 5749 5746 5743 5742 5742 5742 5742 5741 5740 5738 5737 5735 5734 5733 5732 5733 5732 5730 5730 5730 5729 5730 5729 5728 5727 5727 5727 5726 5724 5723 5723 5722 5720 5718 5717 5713 5710 5709 5708 5707
5755 5752 5748 5747 5744 5741 5739 5738 5739 5738 5738 5737 5736 5735 5733 5732 5731 5731 5732 5730 5729 5730 5730 5731 5729 5728 5726 5726 5727 5725 5726 5725 5723 5723 5722 5720 5717 5716 5714 5710 5708 5707 5706
5753 5749 5746 5743 5741 5739 5737 5735 5735 5735 5735 5735 5734 5733 5732 5731 5730 5731 5730 5728 5730 5730 5728 5728 5725 5725 5725 5725 5728 5726 5726 5725 5724 5723 5722 5720 5718 5716 5715 5712 5710 5707 5705
5748 5745 5743 5740 5738 5737 5735 5734 5732 5732 5733 5733 5732 5731 5730 5729 5728 5728 5731 5727 5728 5729 5727 5728 5727 5724 5725 5725 5724 5723 5724 5725 5723 5721 5721 5720 5719 5716 5713 5711 5711 5709 5706
5745 5743 5740 5738 5737 5735 5734 5734 5733 5732 5731 5732 5731 5729 5729 5728 5727 5728 5728 5728 5728 5727 5726 5725 5724 5726 5726 5725 5724 5721 5718 5718 5719 5722 5720 5718 5717 5715 5713 5711 5708 5706 5706
5744 5742 5741 5738 5735 5734 5733 5731 5730 5728 5728 5729 5728 5728 5728 5727 5727 5726 5726 5727 5726 5729 5727 5724 5724 5723 5724 5724 5725 5723 5719 5716 5716 5718 5717 5717 5714 5714 5714 5711 5708 5706 5704
5746 5744 5741 5737 5734 5732 5731 5730 5729 5727 5727 5728 5728 5728 5727 5726 5726 5725 5725 5725 5726 5728 5726 5726 5726 5725 5723 5723 5723 5722 5722 5722 5716 5713 5715 5715 5713 5711 5711 5711 5709 5705 5703
5748 5744 5740 5736 5733 5731 5730 5729 5728 5728 5728 5728 5728 5726 5726 5725 5725 5725 5724 5724 5724 5726 5725 5724 5723 5724 5725 5724 5724 5723 5720 5718 5719 5715 5711 5711 5712 5712 5710 5708 5707 5705 5702
5748 5743 5740 5735 5732 5731 5729 5729 5728 5728 5727 5727 5726 5725 5725 5725 5725 5725 5724 5723 5724 5725 5723 5722 5722 5722 5723 5721 5723 5723 5721 5719 5717 5716 5712 5709 5708 5709 5707 5706 5705 5704 5701